Forside
METAR-TAF:

METAR-TAF

Lufthavne :

Elkhart Municipal Airport

Elkhart, Indiana, USA

Breddekreds: 41-43N, længdekreds: 086-00W, højde: 237 m

Aktuelle vejr

Denne rapport blev lavet for 10 timer og 8 minutter siden, kl. 01:50 UTC
Vind stille
Temperatur 0°C
Fugtighed 86%
Tryk 1027 hPa
Sigt: 16.1 km
skyfri

METAR: KEKM 240150Z 00000KT 10SM CLR 00/M02 A3033 RMK AO2 LAST

Tid: 06:58 (11:58 UTC)


TAF: fraværende

Vejrobservationer og prognoser fra mere end 4000 lufthavne (METAR og TAF).

De gule og røde prikker repræsenterer de meteorologiske stationer.

Flyt musen over at se navnet på stationen.

Så klik over at se vejr observationer og prognoser.

At skifte det kort: Klik på de grønne knapper med et sort kors for at zoome ind; på den grønne knap med en bindestreg for at zoome ud; eller på de grønne pile for tilstødende kort.


METAR-TAF: